Ravenna, OH

3:02 AM EST on December 11, 2017 (GMT -0500)
Ravenna

Weather History for KPOV - February, 2013

Change the Weather History Date:

Friday, February 22, 2013

  Actual Average (KCAK) Record (KCAK)
Temperature  
Mean Temperature 28 °F -  
Max Temperature 38 °F 45 °F 70 °F (1930)
Min Temperature 18 °F 25 °F -9 °F (1963)
Degree Days  
Heating Degree Days 37    
Moisture  
Dew Point 25 °F    
Average Humidity 86    
Maximum Humidity 100    
Minimum Humidity 71    
Precipitation  
Precipitation 0.02 in - - ()
Sea Level Pressure  
Sea Level Pressure 30.02 in    
Wind  
Wind Speed 8 mph (ESE)    
Max Wind Speed 16 mph    
Max Gust Speed 23 mph    
Visibility 8 miles    
Events Rain , Snow    
Averages and records for this station are not official NWS values.
T = Trace of Precipitation, MM = Missing Value Source: NWS Daily Summary

Daily Weather History Graph

Daily Weather History Graph

Search for Another Location

Airport or City:

Trip Planner

Search our weather history database for the weather conditions in past years. The results will help you decide how hot, cold, wet, or windy it might be!

Date:

Astronomy

Feb. 22, 2013 Rise Set
Actual Time 7:09 AM EST 6:07 PM EST
Civil Twilight 6:41 AM EST 6:35 PM EST
Nautical Twilight 6:09 AM EST 7:07 PM EST
Astronomical Twilight 5:37 AM EST 7:39 PM EST
Moon 3:16 PM EST (2/22) 4:55 AM EST (2/22)
Length of Visible Light 11h 54m
Length of Day
10h 58m
Waxing Gibbous, 90% of the Moon is Illuminated
Feb 22
Waxing Gibbous
Feb 25
Full
Mar 4
Last Quarter
Mar 11
New
Mar 19
First Quarter

Hourly Weather History & Observations

Time (EST) Temp. Windchill Dew Point Humidity Pressure Visibility Wind Dir Wind Speed Gust Speed Precip Events Conditions
12:16 AM 18.0 °F 7.7 °F 13.1 °F 81% 30.23 in 10.0 mi East 8.1 mph - N/A   Clear
12:35 AM 18.0 °F 11.1 °F 13.1 °F 81% 30.25 in 10.0 mi ESE 4.6 mph - N/A   Clear
12:56 AM 18.1 °F 11.3 °F 13.5 °F 82% 30.25 in 10.0 mi East 4.6 mph - N/A   Clear
1:16 AM 18.1 °F 7.9 °F 13.6 °F 83% 30.25 in 10.0 mi East 8.1 mph - N/A   Clear
1:36 AM 18.3 °F 8.2 °F 13.8 °F 83% 30.23 in 10.0 mi East 8.1 mph - N/A   Clear
1:56 AM 18.3 °F 9.1 °F 13.6 °F 82% 30.23 in 10.0 mi East 6.9 mph - N/A   Clear
2:16 AM 18.5 °F 6.1 °F 13.6 °F 81% 30.21 in 10.0 mi East 11.5 mph - N/A   Clear
2:35 AM 18.5 °F 7.5 °F 13.8 °F 82% 30.19 in 10.0 mi East 9.2 mph - N/A   Clear
2:56 AM 18.7 °F 5.7 °F 13.8 °F 81% 30.17 in 10.0 mi East 12.7 mph - N/A   Scattered Clouds
3:16 AM 19.0 °F 6.8 °F 13.6 °F 79% 30.16 in 10.0 mi East 11.5 mph 18.4 mph N/A   Scattered Clouds
3:35 AM 19.4 °F 6.6 °F 14.0 °F 80% 30.15 in 10.0 mi East 12.7 mph 17.3 mph N/A   Clear
3:56 AM 19.8 °F 7.7 °F 13.8 °F 78% 30.15 in 10.0 mi East 11.5 mph - N/A   Clear
4:16 AM 19.9 °F 6.2 °F 14.2 °F 78% 30.12 in 10.0 mi East 15.0 mph - N/A   Mostly Cloudy
4:36 AM 20.3 °F 7.2 °F 14.0 °F 77% 30.11 in 10.0 mi East 13.8 mph - N/A   Overcast
4:55 AM 20.7 °F 7.6 °F 14.4 °F 77% 30.10 in 10.0 mi East 13.8 mph 19.6 mph N/A   Overcast
5:16 AM 21.2 °F 7.8 °F 14.5 °F 75% 30.08 in 10.0 mi East 15.0 mph 23.0 mph N/A   Overcast
5:36 AM 21.7 °F 8.0 °F 14.9 °F 75% 30.08 in 10.0 mi East 16.1 mph - N/A   Overcast
5:55 AM 22.1 °F 10.0 °F 15.3 °F 75% 30.08 in 10.0 mi East 12.7 mph 19.6 mph N/A   Overcast
6:16 AM 23.0 °F 11.1 °F 15.6 °F 73% 30.07 in 10.0 mi East 12.7 mph 20.7 mph N/A   Overcast
6:35 AM 23.5 °F 11.3 °F 16.0 °F 73% 30.05 in 10.0 mi East 13.8 mph 18.4 mph N/A   Overcast
6:56 AM 23.9 °F 11.7 °F 16.2 °F 72% 30.04 in 10.0 mi East 13.8 mph - N/A   Overcast
7:16 AM 24.8 °F 14.0 °F 16.5 °F 71% 30.04 in 10.0 mi East 11.5 mph 17.3 mph N/A   Overcast
7:35 AM 25.2 °F 14.4 °F 17.8 °F 74% 30.04 in 7.0 mi East 11.5 mph - N/A Snow Light Snow
7:55 AM 25.3 °F 16.0 °F 19.0 °F 77% 30.03 in 7.0 mi ESE 9.2 mph - N/A Rain Light Freezing Rain
8:16 AM 25.9 °F 14.3 °F 19.9 °F 78% 30.01 in 7.0 mi East 13.8 mph - N/A Rain Light Freezing Rain
8:36 AM 26.4 °F 16.0 °F 20.1 °F 77% 30.00 in 10.0 mi East 11.5 mph 19.6 mph N/A   Light Freezing Rain
8:55 AM 26.8 °F 15.9 °F 19.9 °F 75% 29.99 in 10.0 mi ESE 12.7 mph 19.6 mph N/A   Overcast
9:16 AM 27.5 °F 15.9 °F 20.3 °F 74% 29.99 in 7.0 mi ESE 15.0 mph 20.7 mph N/A Rain Light Freezing Rain
9:36 AM 27.5 °F 16.3 °F 21.0 °F 77% 29.98 in 10.0 mi ESE 13.8 mph 19.6 mph N/A Rain Light Freezing Rain
9:55 AM 27.9 °F 16.8 °F 21.2 °F 76% 29.98 in 10.0 mi ESE 13.8 mph 23.0 mph N/A   Overcast
10:16 AM 28.4 °F 18.5 °F 22.3 °F 78% 29.97 in 10.0 mi ESE 11.5 mph 20.7 mph N/A Rain Light Freezing Rain
10:35 AM 28.6 °F 18.2 °F 22.6 °F 78% 29.98 in 10.0 mi ESE 12.7 mph 16.1 mph N/A Rain Light Freezing Rain
10:56 AM 29.1 °F 20.6 °F 23.5 °F 80% 29.98 in 7.0 mi ESE 9.2 mph 16.1 mph N/A Rain Light Freezing Rain
11:16 AM 29.1 °F 20.0 °F 24.8 °F 84% 29.97 in 2.5 mi ESE 10.4 mph 16.1 mph N/A Rain Light Freezing Rain
11:36 AM 29.3 °F 20.2 °F 27.0 °F 91% 29.97 in 7.0 mi ESE 10.4 mph - N/A   Light Freezing Rain
12:16 PM 30.0 °F 22.4 °F 30.2 °F 100% 29.97 in 2.0 mi ESE 8.1 mph - N/A   Overcast
12:36 PM 30.7 °F 22.6 °F 30.7 °F 100% 29.96 in 2.0 mi ESE 9.2 mph - N/A   Overcast
12:55 PM 31.1 °F 24.5 °F 31.3 °F 100% 29.95 in 2.0 mi ESE 6.9 mph - N/A   Overcast
1:16 PM 31.6 °F 24.4 °F 31.8 °F 100% 29.94 in 2.0 mi ESE 8.1 mph - N/A   Overcast
1:35 PM 32.0 °F 25.6 °F 32.0 °F 100% 29.93 in 2.5 mi SE 6.9 mph - N/A   Overcast
1:56 PM 32.0 °F 26.4 °F 32.2 °F 100% 29.92 in 2.5 mi ESE 5.8 mph - N/A   Overcast
2:16 PM 32.4 °F 26.0 °F 32.4 °F 100% 29.92 in 3.0 mi SE 6.9 mph - 0.01 in   Overcast
2:35 PM 32.5 °F 26.2 °F 32.5 °F 100% 29.92 in 4.0 mi SE 6.9 mph - 0.01 in   Overcast
2:55 PM 32.9 °F 28.5 °F 32.9 °F 100% 29.92 in 5.0 mi SE 4.6 mph - 0.02 in   Overcast
3:16 PM 33.4 °F 29.1 °F 33.6 °F 100% 29.93 in 5.0 mi SE 4.6 mph - N/A   Overcast
3:35 PM 33.8 °F 28.6 °F 34.0 °F 100% 29.92 in 5.0 mi ESE 5.8 mph - N/A   Overcast
3:56 PM - - - N/A% 29.93 in 5.0 mi SE 5.8 mph - N/A   Overcast
4:16 PM 34.9 °F 32.0 °F 35.1 °F 100% 29.93 in 5.0 mi SSE 3.5 mph - N/A   Overcast
4:35 PM 35.4 °F - 35.6 °F 100% 29.94 in 4.0 mi Calm Calm - N/A   Light Drizzle
4:56 PM 36.7 °F - 36.9 °F 100% 29.93 in 7.0 mi Calm Calm - N/A   Overcast
5:16 PM 37.0 °F 34.5 °F 37.4 °F 100% 29.94 in 10.0 mi South 3.5 mph - N/A   Overcast
5:35 PM 37.4 °F 34.9 °F 37.4 °F 100% 29.95 in 10.0 mi SSW 3.5 mph - N/A   Overcast
5:56 PM 37.6 °F 35.1 °F 37.8 °F 100% 29.95 in 10.0 mi SW 3.5 mph - N/A   Overcast
6:16 PM 38.1 °F 32.9 °F 37.4 °F 97% 29.95 in 10.0 mi SW 6.9 mph - N/A   Overcast
6:35 PM 37.9 °F - 37.4 °F 98% 29.95 in 10.0 mi Calm Calm - N/A   Overcast
6:56 PM 37.8 °F 34.2 °F 34.0 °F 86% 29.95 in 10.0 mi SW 4.6 mph - N/A   Overcast
7:16 PM 37.8 °F 34.2 °F 32.5 °F 81% 29.95 in 10.0 mi SW 4.6 mph - N/A   Overcast
7:36 PM 37.4 °F 33.8 °F 32.0 °F 81% 29.96 in 10.0 mi SW 4.6 mph - N/A   Overcast
7:56 PM 37.2 °F 33.6 °F 31.8 °F 81% 29.96 in 10.0 mi SW 4.6 mph - N/A   Overcast
8:16 PM 36.9 °F 33.1 °F 31.6 °F 81% 29.96 in 10.0 mi SW 4.6 mph - N/A   Overcast
8:35 PM 36.5 °F - 31.5 °F 82% 29.96 in 10.0 mi Calm Calm - N/A   Overcast
8:56 PM 35.6 °F - 31.8 °F 86% 29.95 in 10.0 mi Calm Calm - N/A   Overcast
9:16 PM 36.5 °F - 31.5 °F 82% 29.96 in 10.0 mi Calm Calm - N/A   Overcast
9:35 PM 36.1 °F - 32.0 °F 85% 29.96 in 10.0 mi Calm Calm - N/A   Overcast
9:56 PM 36.0 °F - 32.0 °F 86% 29.96 in 10.0 mi Calm Calm - N/A   Overcast
10:16 PM 36.5 °F - 32.2 °F 84% 29.96 in 10.0 mi Calm Calm - N/A   Overcast
10:35 PM 36.5 °F - 32.5 °F 86% 29.96 in 10.0 mi Calm Calm - N/A   Overcast
10:56 PM 36.5 °F - 32.5 °F 86% 29.96 in 10.0 mi Calm Calm - N/A   Overcast
11:16 PM 35.8 °F - 33.1 °F 90% 29.96 in 10.0 mi Calm Calm - N/A   Overcast
11:35 PM 35.8 °F - 32.7 °F 89% 29.96 in 10.0 mi Calm Calm - N/A   Overcast
11:55 PM 35.8 °F - 32.4 °F 87% 29.96 in 10.0 mi Calm Calm - N/A   Overcast